TimeEDT,TemperatureF,Dew PointF,Humidity,Sea Level PressureIn,VisibilityMPH,Wind Direction,Wind SpeedMPH,Gust SpeedMPH,PrecipitationIn,Events,Conditions,WindDirDegrees,DateUTC
12:22 AM,53.6,53.6,100,29.59,5.0,North,12.7,-,0.09,Rain,Rain,10,2013-06-14 04:22:00
12:33 AM,53.6,53.6,100,29.59,5.0,North,12.7,19.6,0.13,Rain,Heavy Rain,10,2013-06-14 04:33:00
12:53 AM,54.0,53.1,97,29.60,5.0,North,10.4,18.4,0.19,Rain,Heavy Rain,360,2013-06-14 04:53:00
1:31 AM,53.6,51.8,94,29.61,4.0,North,13.8,20.7,0.10,Rain,Rain,360,2013-06-14 05:31:00
1:48 AM,53.6,51.8,94,29.61,4.0,North,16.1,24.2,0.15,Rain,Heavy Rain,360,2013-06-14 05:48:00
1:53 AM,53.1,52.0,96,29.61,4.0,North,15.0,24.2,0.17,Rain,Heavy Rain,360,2013-06-14 05:53:00
2:42 AM,51.8,51.8,100,29.61,4.0,North,15.0,-,0.16,Rain,Heavy Rain,360,2013-06-14 06:42:00
2:53 AM,52.0,52.0,100,29.62,4.0,North,13.8,20.7,0.18,Rain,Rain,10,2013-06-14 06:53:00
3:53 AM,52.0,51.1,97,29.63,5.0,North,10.4,-,0.13,Rain,Rain,350,2013-06-14 07:53:00
4:08 AM,51.8,51.8,100,29.64,5.0,North,11.5,18.4,0.02,Rain,Rain,350,2013-06-14 08:08:00
4:22 AM,51.8,51.8,100,29.64,7.0,NNW,13.8,17.3,0.04,Rain,Light Rain,340,2013-06-14 08:22:00
4:51 AM,53.6,51.8,94,29.65,6.0,North,11.5,-,0.06,Rain,Light Rain,360,2013-06-14 08:51:00
4:53 AM,53.1,51.1,93,29.65,6.0,North,11.5,20.7,0.07,Rain,Light Rain,350,2013-06-14 08:53:00
5:22 AM,53.6,51.8,94,29.67,6.0,North,12.7,17.3,0.02,Rain,Light Rain,360,2013-06-14 09:22:00
5:53 AM,53.1,51.1,93,29.66,5.0,North,16.1,24.2,0.08,Rain,Rain,10,2013-06-14 09:53:00
6:20 AM,53.6,51.8,94,29.66,5.0,North,10.4,-,0.05,Rain,Rain,10,2013-06-14 10:20:00
6:53 AM,53.1,-9999,N/A,29.67,9.0,North,10.4,-,0.09,Rain,Light Rain,360,2013-06-14 10:53:00
7:25 AM,53.6,-9999,N/A,29.69,10.0,NNW,8.1,-,0.01,Rain,Light Rain,340,2013-06-14 11:25:00
7:53 AM,54.0,-9999,N/A,29.70,10.0,NNW,10.4,19.6,0.02,Rain,Light Rain,340,2013-06-14 11:53:00
8:01 AM,53.6,-9999,N/A,29.70,10.0,North,12.7,-,0.00,Rain,Light Rain,350,2013-06-14 12:01:00
8:08 AM,53.6,-9999,N/A,29.70,10.0,North,13.8,-,0.00,Rain,Light Rain,350,2013-06-14 12:08:00
8:38 AM,55.4,51.8,88,29.71,10.0,North,13.8,20.7,0.01,Rain,Light Rain,10,2013-06-14 12:38:00
8:53 AM,55.9,52.0,87,29.72,10.0,North,13.8,-,0.01,,Overcast,10,2013-06-14 12:53:00
9:53 AM,57.9,53.1,84,29.72,10.0,North,12.7,-,N/A,,Mostly Cloudy,10,2013-06-14 13:53:00
10:01 AM,59.0,53.6,82,29.72,10.0,North,10.4,-,N/A,,Overcast,10,2013-06-14 14:01:00
10:53 AM,61.0,53.1,75,29.75,10.0,North,10.4,-,N/A,,Mostly Cloudy,360,2013-06-14 14:53:00
11:07 AM,60.8,51.8,72,29.76,10.0,North,9.2,-,N/A,,Scattered Clouds,10,2013-06-14 15:07:00
11:53 AM,63.0,51.1,65,29.77,10.0,North,6.9,-,N/A,,Mostly Cloudy,360,2013-06-14 15:53:00
12:53 PM,64.9,53.1,65,29.76,10.0,NNW,9.2,-,N/A,,Partly Cloudy,340,2013-06-14 16:53:00
1:53 PM,64.9,51.1,61,29.76,10.0,Calm,Calm,-,N/A,,Clear,0,2013-06-14 17:53:00
2:53 PM,71.1,52.0,51,29.75,10.0,NE,8.1,-,N/A,,Clear,40,2013-06-14 18:53:00
3:53 PM,72.0,48.9,44,29.75,10.0,NE,3.5,-,N/A,,Clear,40,2013-06-14 19:53:00
4:53 PM,73.9,50.0,43,29.74,10.0,North,5.8,-,N/A,,Clear,10,2013-06-14 20:53:00
5:53 PM,73.9,50.0,43,29.75,10.0,West,6.9,-,N/A,,Partly Cloudy,260,2013-06-14 21:53:00
6:53 PM,72.0,53.1,51,29.76,10.0,West,4.6,-,N/A,,Clear,260,2013-06-14 22:53:00
7:53 PM,71.1,55.0,57,29.76,10.0,WSW,4.6,-,N/A,,Partly Cloudy,250,2013-06-14 23:53:00
8:53 PM,66.9,54.0,63,29.78,10.0,West,4.6,-,N/A,,Partly Cloudy,260,2013-06-15 00:53:00
9:53 PM,64.9,55.9,73,29.80,10.0,Calm,Calm,-,N/A,,Clear,0,2013-06-15 01:53:00
10:53 PM,59.0,57.0,93,29.81,10.0,Calm,Calm,-,N/A,,Clear,0,2013-06-15 02:53:00
11:53 PM,57.9,55.9,93,29.83,10.0,Calm,Calm,-,N/A,,Clear,0,2013-06-15 03:53:00